Zurück zum Katalog

FREGAT DEB

LostUNKNOWN
NORAD 47093·DEBRIS·🇷🇺 Russia

Gestartet Jul 18, 2011 von Baikonur Cosmodrome

Loading…

Nächste Überflüge (nächste 24 Stunden)

TLE

VeraltetSource: Space-Track

Epoche: Nov 23, 2020, 03:22 UTC

1 47093U 11037NE  20328.14043953  .00036620  00000-0  12521-1 0  9998
2 47093  51.6082 271.0943 1589731  40.8455 329.1787 11.76089803  4579

Verfolge FREGAT DEB in Echtzeit mit AllMySat

Download on the App Store